SCP
0 0 0 0 0 0 0 0 0 0 0 0 0 0 0 0 0 0 0 0 0 0 0 0 0 0 0 0 0 0 0 0 0 0 0 0 0 0 0 0 0 0 0
0 0 0 0 0 0 0 0 0 0 0 0 0 0 0 0 0 0 0 0 0 0 0 0 0 0 0 0 0 0 0 0 0 0 0 0 0 0 0 0 0 0 0
0 0 0 0 0 0 0 0 0 0 0 0 0 0 0 0 0 0 0 0 0 0 0 0 0 0 0 0 0 0 0 0 0 0 0 0 0 0 0 0 0 0 0
0 0 0 0 0 0 0 0 0 0 0 0 0 0 0 0 0 0 0 0 0 0 0 0 0 0 0 0 0 0 0 0 0 0 0 0 0 0 0 0 0 0 0
0 0 0 0 0 0 0 0 0 0 0 0 0 0 0 0 0 0 0 0 0 0 0 0 0 0 0 0 0 0 0 0 0 0 0 0 0 0 0 0 0 0 0
0 0 0 0 0 0 0 0 0 0 0 0 0 0 0 0 0 0 0 0 0 0 0 0 0 0 0 0 0 0 0 0 0 0 0 0 0 0 0 0 0 0 0
0 0 0 0 0 0 0 0 0 0 0 0 0 0 0 0 0 0 0 0 0 0 0 0 0 0 0 0 0 0 0 0 0 0 0 0 0 0 0 0 0 0 0
0 0 0 0 0 0 0 0 0 0 0 0 0 0 0 0 0 0 0 0 0 0 0 0 0 0 0 0 0 0 0 0 0 0 0 0 0 0 0 0 0 0 0
0 0 0 0 0 0 0 0 0 0 0 0 0 0 0 0 0 0 0 0 0 0 0 0 0 0 0 0 0 0 0 0 0 0 0 0 0 0 0 0 0 0 0
0 0 0 0 0 0 0 0 0 0 0 0 0 0 0 0 0 0 0 0 0 0 0 0 0 0 0 0 0 0 0 0 0 0 0 0 0 0 0 0 0 0 0
0 0 0 0 0 0 0 0 0 0 0 0 0 0 0 0 0 0 0 0 0 0 0 0 0 0 0 0 0 0 0 0 0 0 0 0 0 0 0 0 0 0 0
0 0 0 0 0 0 0 0 0 0 0 0 0 0 0 0 0 0 0 0 0 0 0 0 0 0 0 0 0 0 0 0 0 0 0 0 0 0 0 0 0 0 0
0 0 0 0 0 0 0 0 0 0 0 0 0 0 0 0 0 0 0 0 0 0 0 0 0 0 0 0 0 0 0 0 0 0 0 0 0 0 0 0 0 0 0
0 0 0 0 0 0 0 0 0 0 0 0 0 0 0 0 0 0 0 0 0 0 0 0 0 0 0 0 0 0 0 0 0 0 0 0 0 0 0 0 0 0 0
0 0 0 0 0 0 0 0 0 0 0 0 0 0 0 0 0 0 0 0 0 0 0 0 0 0 0 0 0 0 0 0 0 0 0 0 0 0 0 0 0 0 0
0 0 0 0 0 0 0 0 0 0 0 0 0 0 0 0 0 0 0 0 0 0 0 0 0 0 0 0 0 0 0 0 0 0 0 0 0 0 0 0 0 0 0
0 0 0 0 0 0 0 0 0 0 0 0 0 0 0 0 0 0 0 0 0 0 0 0 0 0 0 0 0 0 0 0 0 0 0 0 0 0 0 0 0 0 0
0 0 0 0 0 0 0 0 0 0 0 0 0 0 0 0 0 0 0 0 0 0 0 0 0 0 0 0 0 0 0 0 0 0 0 0 0 0 0 0 0 0 0
0 0 0 0 0 0 0 0 0 0 0 0 0 0 0 0 0 0 0 0 0 0 0 0 0 0 0 0 0 0 0 0 0 0 0 0 0 0 0 0 0 0 0
0 0 0 0 0 0 0 0 0 0 0 0 0 0 0 0 0 0 0 0 0 0 0 0 0 0 0 0 0 0 0 0 0 0 0 0 0 0 0 0 0 0 0
0 0 0 0 0 0 0 0 0 0 0 0 0 0 0 0 0 0 0 0 0 0 0 0 0 0 0 0 0 0 0 0 0 0 0 0 0 0 0 0 0 0 0
0 0 0 0 0 0 0 0 0 0 0 0 0 0 0 0 0 0 0 0 0 0 0 0 0 0 0 0 0 0 0 0 0 0 0 0 0 0 0 0 0 0 0
0 0 0 0 0 0 0 0 0 0 0 0 0 0 0 0 0 0 0 0 0 0 0 0 0 0 0 0 0 0 0 0 0 0 0 0 0 0 0 0 0 0 0
0 0 0 0 0 0 0 0 0 0 0 0 0 0 0 0 0 0 0 0 0 0 0 0 0 0 0 0 0 0 0 0 0 0 0 0 0 0 0 0 0 0 0
0 0 0 0 0 0 0 0 0 0 0 0 0 0 0 0 0 0 0 0 0 0 0 0 0 0 0 0 0 0 0 0 0 0 0 0 0 0 0 0 0 0 0
0 0 0 0 0 0 0 0 0 0 0 0 0 0 0 0 0 0 0 0 0 0 0 0 0 0 0 0 0 0 0 0 0 0 0 0 0 0 0 0 0 0 0
Wind_Speed
5 2 6 10 12 12 12 14 15 14 12 11 11 12 12 9 8 9 11 12 12 14 12 9 9 9 9 10 9 7 7 6 4 2 3 5 8 9 8 6 6 7 7
8 7 3 5 9 11 12 12 14 15 13 12 10 8 8 7 8 7 10 13 14 15 14 13 10 11 9 11 12 9 6 6 7 5 3 3 4 8 10 7 7 7 6
7 7 4 1 5 8 11 11 12 14 14 12 6 5 6 6 8 10 11 13 14 15 14 15 12 12 12 12 14 12 13 9 8 7 6 6 7 3 3 7 8 7 6
6 5 5 2 2 6 8 10 10 12 12 13 11 12 12 15 15 10 8 10 13 14 15 15 15 13 12 12 13 14 11 9 8 7 7 5 5 4 3 3 6 8 8
6 6 5 3 2 3 5 7 9 10 11 12 13 13 14 13 7 7 9 12 12 14 15 15 15 15 12 13 12 13 13 12 11 8 6 6 5 4 5 5 4 5 6
7 7 6 5 3 1 2 5 7 8 9 11 12 14 15 12 9 10 10 10 9 10 15 14 14 14 13 13 13 12 14 13 13 10 8 8 7 9 9 10 7 6 5
7 7 8 7 6 3 1 4 6 7 8 9 12 13 14 12 13 11 10 9 9 10 13 15 15 14 14 12 11 13 14 15 14 14 12 10 9 5 7 8 6 7 5
6 6 6 6 6 5 3 1 4 6 7 8 10 11 11 10 10 11 10 10 9 10 10 14 15 16 14 14 13 12 14 12 15 16 14 10 10 8 8 8 6 5 5
5 6 6 5 5 5 4 3 2 4 6 7 8 9 10 10 11 10 10 9 9 8 10 13 15 15 15 15 14 13 14 12 13 13 14 12 9 8 8 7 7 7 6
5 5 5 5 4 3 2 2 1 2 4 5 6 6 8 9 10 9 11 11 10 9 9 10 13 14 15 15 15 13 12 14 13 11 13 13 10 8 8 8 8 8 8
4 4 4 5 4 4 3 2 2 2 3 4 5 6 7 7 8 9 10 10 10 10 11 11 11 13 14 15 15 16 13 16 15 13 14 15 13 10 9 8 8 9 10
3 3 4 5 5 6 5 5 4 3 4 4 5 6 6 7 7 9 9 9 10 10 11 10 11 12 13 14 16 17 16 17 17 16 15 16 13 14 11 10 11 11 11
3 3 4 5 6 6 6 6 5 5 4 4 5 6 6 7 8 9 9 9 9 10 10 10 12 12 12 13 15 16 16 16 16 15 16 16 15 16 13 13 12 11 11
3 4 4 5 6 7 7 7 6 6 5 5 5 6 7 7 8 8 7 8 8 9 10 11 11 11 11 12 13 13 14 14 14 15 16 16 17 16 15 14 14 12 11
4 5 6 6 7 7 7 7 7 7 6 6 6 7 7 6 6 7 7 8 8 9 9 9 10 9 9 10 11 11 12 13 13 14 15 16 20 23 19 14 12 12 11
6 7 7 8 8 8 8 8 8 7 7 7 8 8 7 6 7 7 8 8 9 9 8 9 10 11 10 18 25 18 12 13 13 14 13 15 22 26 33 32 27 21 15
7 8 8 7 7 8 8 8 8 7 8 8 9 8 7 7 7 8 8 9 9 9 9 10 10 12 14 23 26 27 15 13 13 14 12 13 15 22 15 23 30 28 30
9 8 7 7 7 7 8 8 8 8 8 9 9 8 7 8 8 8 9 9 8 8 9 10 11 11 14 23 24 25 17 12 14 14 14 14 13 15 16 14 14 14 15
8 7 6 6 7 8 8 8 8 9 9 9 9 8 7 8 8 9 10 9 8 8 8 8 9 10 12 20 22 23 9 10 12 13 14 15 14 22 27 18 15 15 14
7 7 6 7 7 8 8 9 9 9 10 9 9 8 8 9 9 10 9 8 7 8 8 8 8 10 10 16 21 21 7 9 9 10 13 23 22 24 27 18 14 15 13
8 7 7 7 7 8 8 9 10 10 10 9 9 9 9 9 10 9 8 8 8 8 8 9 8 8 10 14 19 21 9 8 9 9 9 11 24 27 28 23 13 17 14
7 7 7 8 8 8 9 10 11 10 9 9 10 10 9 9 9 10 9 8 8 8 8 8 8 6 8 12 14 20 19 16 10 9 7 10 21 24 25 19 17 22 19
7 7 7 9 9 9 9 11 12 10 10 10 10 10 10 9 9 9 10 8 7 7 7 7 8 7 5 8 17 19 19 20 11 8 14 16 20 20 16 19 21 16 8
7 7 8 10 11 10 9 10 12 11 11 11 10 9 9 10 10 8 7 7 7 8 8 8 8 7 5 5 5 5 7 12 11 9 13 19 20 16 13 12 10 6 5
7 7 9 11 12 11 11 11 11 11 11 11 9 9 9 10 10 8 8 9 8 10 11 8 7 8 7 8 12 7 5 5 7 6 5 6 6 7 6 5 5 5 5
8 9 10 12 13 12 12 11 10 10 11 10 9 8 8 9 9 10 10 12 15 21 21 20 16 12 16 18 17 16 15 15 15 10 5 6 6 7 6 6 5 5 5
Wind_Direction
330 305 187 182 180 181 183 182 184 186 185 191 197 200 207 207 207 204 201 198 196 196 198 200 198 196 197 197 193 189 196 202 178 185 263 257 234 231 229 222 220 224 224
6 6 41 155 175 180 184 184 185 187 191 198 200 202 201 207 211 209 208 203 199 197 202 203 201 200 198 199 198 191 188 194 182 171 183 266 271 234 225 211 212 218 216
25 16 20 77 178 185 188 193 191 191 193 191 186 194 201 207 213 213 212 209 204 201 202 205 203 203 202 206 203 195 192 199 195 183 168 188 225 255 233 214 214 214 213
34 28 21 8 210 202 194 194 194 195 193 190 196 199 207 215 217 214 212 210 209 207 206 205 207 208 208 210 207 204 199 190 195 201 207 196 170 178 251 262 225 217 218
40 30 21 356 316 211 196 196 197 201 196 197 203 209 220 227 225 215 215 214 214 214 211 208 209 212 213 212 209 207 204 204 201 192 182 208 217 189 189 240 242 231 223
34 27 19 9 353 336 189 193 203 212 205 204 207 213 223 226 225 223 223 219 217 216 215 213 213 214 216 214 211 210 210 210 210 207 195 180 183 197 199 216 221 228 230
33 22 15 9 3 352 255 203 209 223 218 214 217 220 225 226 230 230 229 225 223 220 216 214 217 217 218 215 210 212 215 213 211 213 215 209 206 179 184 200 212 223 228
38 29 20 15 9 5 350 260 224 227 225 223 225 225 225 225 232 232 230 231 230 226 213 212 217 218 216 217 215 218 219 216 218 219 217 218 214 206 197 195 191 219 233
42 32 21 18 15 12 3 349 295 254 235 229 230 229 227 227 231 230 231 236 237 228 215 211 214 216 216 217 216 222 221 219 220 220 218 221 219 213 210 205 197 200 224
45 31 15 8 9 7 354 358 332 290 265 245 236 235 232 231 231 230 233 235 236 231 224 217 214 215 216 216 217 223 220 219 220 216 217 220 218 216 213 214 213 211 220
50 30 6 356 358 354 350 338 301 278 272 266 258 251 245 239 237 236 237 236 235 231 230 226 221 218 217 215 218 222 217 221 222 218 217 219 213 215 216 215 215 220 222
54 28 5 349 348 343 337 331 315 293 267 254 257 260 257 250 244 244 244 239 238 234 232 229 228 225 220 216 218 222 220 220 221 219 218 219 214 216 215 216 218 222 224
38 13 356 342 337 331 328 324 318 308 289 266 258 261 261 257 252 249 246 242 241 240 235 231 232 230 224 219 220 221 222 222 222 218 217 217 213 216 216 217 220 224 229
2 357 342 330 325 320 318 315 314 310 304 290 276 269 264 261 261 260 256 249 243 241 239 236 235 231 226 224 224 221 222 222 221 219 218 216 214 216 215 219 221 223 228
337 340 330 320 317 317 315 314 313 311 310 304 293 281 274 272 273 273 271 265 257 251 245 242 241 234 228 227 225 224 224 222 222 220 219 218 218 219 218 220 219 220 225
331 333 325 320 318 317 315 315 311 309 310 303 293 287 283 279 275 273 271 268 263 257 249 244 243 241 237 244 243 237 227 225 224 225 222 222 229 230 230 229 226 219 220
336 326 319 316 317 315 314 312 306 308 309 302 295 290 284 279 275 272 271 267 262 255 249 245 241 243 245 251 252 249 235 222 225 225 223 224 226 229 230 238 240 236 233
324 317 314 315 312 311 312 310 312 312 307 302 298 295 291 285 281 277 273 270 264 259 254 248 243 244 247 254 256 254 246 227 223 222 221 222 223 224 222 224 232 239 244
314 311 313 315 316 314 312 314 310 306 304 300 297 297 295 292 289 284 278 274 271 268 263 256 248 247 252 256 259 256 240 233 227 221 219 220 221 227 229 225 225 232 239
317 319 322 319 313 309 313 311 304 303 300 298 298 300 299 295 290 284 282 280 274 272 270 265 255 252 252 257 260 258 239 236 233 225 221 224 222 226 231 227 221 228 232
317 320 320 313 306 309 311 303 300 297 295 298 301 300 296 292 289 287 283 282 279 278 276 273 265 257 256 264 263 260 241 230 233 231 222 219 228 230 230 229 223 231 233
316 318 314 305 303 305 305 300 297 296 298 300 299 297 294 293 295 290 287 283 282 283 281 279 276 263 262 265 264 263 257 246 232 231 221 217 226 232 234 234 234 237 243
310 309 306 303 301 301 301 300 300 303 303 300 298 297 296 295 293 290 290 289 285 280 280 278 280 276 259 260 266 265 263 259 246 227 224 222 227 228 232 236 238 241 235
304 304 304 302 300 300 300 299 304 305 303 301 300 299 299 298 294 287 284 285 284 281 279 280 280 279 271 256 247 248 262 264 259 245 233 229 227 222 220 227 239 231 220
298 300 298 297 299 304 305 303 303 304 302 299 298 298 296 295 294 288 283 283 273 277 284 276 269 277 277 266 265 254 235 229 237 234 215 210 210 210 202 201 209 214 225
300 301 299 300 302 303 301 300 300 302 303 303 301 298 296 295 292 292 290 280 280 290 289 285 279 272 272 278 276 273 267 256 244 236 216 207 204 205 202 205 209 212 218